Belichi, Ukraine

4:27 AM EEST on July 26, 2017 (GMT +0300)
Belichi

Weather History for 33345 - November, 2013

Change the Weather History Date:

Monday, November 25, 2013

  Actual Average Record
Temperature  
Mean Temperature 44 °F -  
Max Temperature 48 °F - - ()
Min Temperature 39 °F - - ()
Degree Days  
Heating Degree Days 22    
Moisture  
Dew Point 44 °F    
Average Humidity 98    
Maximum Humidity 100    
Minimum Humidity 81    
Precipitation  
Precipitation 0.24 in 0.07 in - ()
Sea Level Pressure  
Sea Level Pressure 29.52 in    
Wind  
Wind Speed 8 mph ()    
Max Wind Speed 16 mph    
Max Gust Speed -    
Visibility 2.6 miles    
Events Fog , Rain    
T = Trace of Precipitation, MM = Missing Value Source: Averaged Metar Reports

Daily Weather History Graph

Daily Weather History Graph

Search for Another Location

Airport or City:

Trip Planner

Search our weather history database for the weather conditions in past years. The results will help you decide how hot, cold, wet, or windy it might be!

Date:

Astronomy

Nov. 25, 2013 Rise Set
Actual Time 7:27 AM EET 4:01 PM EET
Civil Twilight 6:50 AM EET 4:38 PM EET
Nautical Twilight 6:09 AM EET 5:19 PM EET
Astronomical Twilight 5:30 AM EET 5:58 PM EET
Moon 11:31 PM EET (11/25) 12:12 PM EET (11/25)
Length of Visible Light 9h 48m
Length of Day
8h 33m
Waning Gibbous, 54% of the Moon is Illuminated
Nov 25
Waning Gibbous
Nov 25
Last Quarter
Dec 3
New
Dec 9
First Quarter
Dec 17
Full

Hourly Weather History & Observations

Time (EET) Temp. Windchill Dew Point Humidity Pressure Visibility Wind Dir Wind Speed Gust Speed Precip Events Conditions
12:00 AM 42.8 °F 40.2 °F 42.8 °F 100% 29.74 in 0.8 mi SSE 4.5 mph - N/A   Light Drizzle
12:14 AM 42.8 °F 38.7 °F 42.8 °F 100% 29.74 in 1.2 mi SSE 6.7 mph - N/A   Light Drizzle
12:30 AM 42.8 °F 38.7 °F 42.8 °F 100% 29.71 in 1.2 mi SSE 6.7 mph - N/A   Light Drizzle
1:00 AM 42.8 °F 38.7 °F 42.8 °F 100% 29.71 in 1.5 mi SSE 6.7 mph - N/A   Overcast
1:30 AM 44.6 °F 40.8 °F 44.6 °F 100% 29.71 in 1.4 mi SE 6.7 mph - N/A   Overcast
2:00 AM 43 °F - 43 °F 100% 29.73 in 1 mi SSE 6.7 mph - - Fog Heavy Fog
2:00 AM 44.6 °F 40.8 °F 44.6 °F 100% 29.68 in 1.2 mi SE 6.7 mph - N/A   Light Drizzle
2:30 AM 44.6 °F 40.8 °F 44.6 °F 100% 29.68 in 1.6 mi SE 6.7 mph - N/A   Light Drizzle
3:00 AM 44.6 °F 40.8 °F 44.6 °F 100% 29.68 in - SE 6.7 mph - N/A   Light Drizzle
3:30 AM 44.6 °F 40.8 °F 44.6 °F 100% 29.65 in - SE 6.7 mph - N/A Rain Light Rain Showers
4:00 AM 44.6 °F 39.8 °F 44.6 °F 100% 29.65 in 4.3 mi SSE 8.9 mph - N/A Rain Light Rain Showers
4:30 AM 44.6 °F 39.8 °F 44.6 °F 100% 29.65 in 5.0 mi SE 8.9 mph - N/A Rain Light Rain Showers
5:00 AM 44 °F - 44 °F 98% 29.66 in 1 mi SSE 8.9 mph - - Fog Light Fog
5:00 AM 44.6 °F 39.8 °F 44.6 °F 100% 29.62 in - SE 8.9 mph - N/A   Overcast
5:30 AM 44.6 °F 39.8 °F 44.6 °F 100% 29.62 in 1.7 mi SE 8.9 mph - N/A   Overcast
6:00 AM 44.6 °F 39.8 °F 44.6 °F 100% 29.62 in - SE 8.9 mph - N/A Rain Light Rain
6:30 AM 44.6 °F 38.9 °F 44.6 °F 100% 29.59 in 3.7 mi SE 11.2 mph - N/A Rain Light Rain
7:00 AM 44.6 °F 38.9 °F 44.6 °F 100% 29.59 in 2.8 mi ESE 11.2 mph - N/A Rain Light Rain
7:10 AM 44.6 °F 38.9 °F 44.6 °F 100% 29.59 in 1.4 mi SE 11.2 mph - N/A Rain Light Rain
7:19 AM 44.6 °F 38.9 °F 44.6 °F 100% 29.59 in 0.8 mi SE 11.2 mph - N/A Rain Light Rain
7:30 AM 44.6 °F 38.9 °F 44.6 °F 100% 29.59 in 0.7 mi SE 11.2 mph - N/A   Light Drizzle
8:00 AM 44 °F - 44 °F 100% 29.62 in 0 mi SE 4.5 mph - - Fog Heavy Fog
8:00 AM 44.6 °F 38.9 °F 44.6 °F 100% 29.59 in 0.7 mi ESE 11.2 mph - N/A Rain Light Rain
8:20 AM 44.6 °F 38.9 °F 44.6 °F 100% 29.56 in - ESE 11.2 mph - N/A Rain Light Rain
8:30 AM 44.6 °F 38.9 °F 44.6 °F 100% 29.59 in 0.6 mi ESE 11.2 mph - N/A Rain Light Rain
8:48 AM 44.6 °F 38.9 °F 44.6 °F 100% 29.56 in 0.4 mi ESE 11.2 mph - N/A Rain Light Rain
9:00 AM 44.6 °F 38.9 °F 44.6 °F 100% 29.56 in - ESE 11.2 mph - N/A Fog , Rain Light Rain
9:30 AM 44.6 °F 38.9 °F 44.6 °F 100% 29.56 in 0.4 mi ESE 11.2 mph - N/A Rain Light Rain
9:53 AM 44.6 °F 38.9 °F 44.6 °F 100% 29.56 in 0.5 mi ESE 11.2 mph - N/A Rain Rain
10:00 AM 44.6 °F 38.9 °F 44.6 °F 100% 29.53 in 0.6 mi ESE 11.2 mph - N/A Rain Rain
10:14 AM 44.6 °F 38.2 °F 44.6 °F 100% 29.53 in 1.2 mi ESE 13.4 mph - N/A Rain Light Rain
10:27 AM 44.6 °F 38.2 °F 44.6 °F 100% 29.53 in 2.5 mi ESE 13.4 mph - N/A Rain Light Rain
10:30 AM 44.6 °F 38.2 °F 44.6 °F 100% 29.53 in - ESE 13.4 mph - N/A Rain Light Rain
11:00 AM 44 °F - 44 °F 100% 29.56 in 0 mi SE 6.7 mph - - Rain Rain
11:00 AM 44.6 °F 38.2 °F 44.6 °F 100% 29.53 in 3.7 mi ESE 13.4 mph - N/A Rain Light Rain
11:30 AM 44.6 °F 38.2 °F 44.6 °F 100% 29.50 in 3.7 mi ESE 13.4 mph - N/A Rain Light Rain
12:00 PM 44.6 °F 37.6 °F 44.6 °F 100% 29.47 in 3.1 mi ESE 15.7 mph - N/A Rain Light Rain
12:30 PM 44.6 °F 38.2 °F 44.6 °F 100% 29.47 in 3.1 mi ESE 13.4 mph - N/A Rain Light Rain
1:00 PM 44.6 °F 38.2 °F 44.6 °F 100% 29.44 in - ESE 13.4 mph - N/A Rain Light Rain
1:30 PM 44.6 °F 38.9 °F 44.6 °F 100% 29.44 in - ESE 11.2 mph - N/A   Overcast
2:00 PM 44 °F - 44 °F 99% 29.47 in 0 mi SE 6.7 mph - - Fog Heavy Fog
2:00 PM 44.6 °F 38.9 °F 44.6 °F 100% 29.44 in - ESE 11.2 mph - N/A   Overcast
2:30 PM 44.6 °F 39.8 °F 44.6 °F 100% 29.44 in - SE 8.9 mph - N/A   Overcast
3:00 PM 46.4 °F 41.2 °F 46.4 °F 100% 29.42 in - SE 11.2 mph - N/A   Overcast
3:30 PM 46.4 °F 41.2 °F 46.4 °F 100% 29.42 in - ESE 11.2 mph - N/A   Overcast
4:00 PM 46.4 °F 41.2 °F 46.4 °F 100% 29.39 in - ESE 11.2 mph - N/A   Overcast
4:30 PM 48.2 °F - 48.2 °F 100% 29.39 in - ESE 13.4 mph - N/A   Overcast
5:00 PM 47 °F - 47 °F 98% 29.41 in 1 mi SSE 6.7 mph - - Fog Light Fog
5:00 PM 48.2 °F - 48.2 °F 100% 29.39 in - ESE 11.2 mph - N/A   Mostly Cloudy
5:30 PM 48.2 °F - 48.2 °F 100% 29.39 in 3.1 mi SE 6.7 mph - N/A   Mostly Cloudy
5:32 PM 48.2 °F - 48.2 °F 100% 29.39 in 3.1 mi SE 8.9 mph - N/A   Mostly Cloudy
6:00 PM 48.2 °F - 48.2 °F 100% 29.39 in 3.7 mi SE 8.9 mph - N/A   Mostly Cloudy
6:30 PM 48.2 °F - 48.2 °F 100% 29.36 in 3.1 mi ESE 8.9 mph - N/A   Mostly Cloudy
6:32 PM 48.2 °F - 48.2 °F 100% 29.36 in 3.1 mi SE 8.9 mph - N/A   Mostly Cloudy
7:00 PM 48.2 °F - 48.2 °F 100% 29.36 in 3.7 mi SE 8.9 mph - N/A Rain Light Rain Showers
7:30 PM 48.2 °F - 46.4 °F 93% 29.36 in 4.3 mi SE 6.7 mph - N/A   Mostly Cloudy
8:00 PM 46 °F - 46 °F 98% 29.37 in 2 mi SSW 8.9 mph - -   Mist
8:00 PM 48.2 °F - 42.8 °F 82% 29.36 in 6.2 mi South 11.2 mph - N/A Rain Light Rain Showers
8:30 PM 46.4 °F 43.0 °F 44.6 °F 93% 29.36 in 6.2 mi SSW 6.7 mph - N/A Rain Light Rain Showers
9:00 PM 44.6 °F 38.2 °F 41.0 °F 87% 29.36 in 6.2 mi SSW 13.4 mph - N/A   Mostly Cloudy
9:30 PM 42.8 °F 36.7 °F 37.4 °F 81% 29.39 in 6.2 mi SW 11.2 mph - N/A   Mostly Cloudy
10:00 PM 41.0 °F 34.4 °F 35.6 °F 81% 29.39 in 6.2 mi SW 11.2 mph - N/A   Mostly Cloudy
10:30 PM 41.0 °F 34.4 °F 35.6 °F 81% 29.39 in 6.2 mi SW 11.2 mph - N/A   Mostly Cloudy
11:00 PM 39.2 °F 33.1 °F 35.6 °F 87% 29.42 in 6.2 mi SW 8.9 mph - N/A   Mostly Cloudy
11:30 PM 39.2 °F 33.1 °F 35.6 °F 87% 29.42 in 6.2 mi WSW 8.9 mph - N/A   Mostly Cloudy